Weather History for Pensacola, FL

Change the Weather History Date:

Monday, March 5, 2012

  Actual Average Record
Temperature  
Mean Temperature 65 °F 58 °F  
Max Temperature 77 °F 67 °F 80 °F (1974)
Min Temperature 53 °F 49 °F 25 °F (2002)
Degree Days  
Heating Degree Days 0 7  
Month to date heating degree days 13 39  
Since 1 July heating degree days 891 1347  
Cooling Degree Days 0 1  
Month to date cooling degree days 18 4  
Year to date cooling degree days 70 18  
Growing Degree Days 14 (Base 50)    
Moisture  
Dew Point 38 °F    
Average Humidity 47    
Maximum Humidity 72    
Minimum Humidity 21    
Precipitation  
Precipitation 0.00 in 0.19 in 3.69 in (1984)
Month to date precipitation 1.18 1.00  
Year to date precipitation 9.42 10.69  
Snow  
Snow 0.00 in 0.00 in - ()
Month to date snowfall 0.0 0.0  
Since 1 July snowfall 0.0 0.0  
Snow Depth 0.00 in    
Sea Level Pressure  
Sea Level Pressure 30.33 in    
Wind  
Wind Speed 9 mph (NW)    
Max Wind Speed 18 mph    
Max Gust Speed 23 mph    
Visibility 10 miles    
Events      
T = Trace of Precipitation, MM = Missing Value Source: NWS Daily Summary

Daily Weather History Graph

Daily Weather History Graph

Search for Another Location

Airport:

Trip Planner

Search our weather history database for the weather conditions in past years. The results will help you decide how hot, cold, wet, or windy it might be!

Date:

Astronomy

Mar. 05, 2012 Rise Set
Actual Time 6:09 AM CST 5:50 PM CST
Civil Twilight 5:45 AM CST 6:14 PM CST
Nautical Twilight 5:18 AM CST 6:42 PM CST
Astronomical Twilight 4:50 AM CST 7:10 PM CST
Moon 3:17 PM CST (3/5) 3:58 AM CST (3/5)
Length of Visible Light 12h 28m
Length of Day
11h 40m
Waxing Gibbous, 91% of the Moon is Illuminated
Mar 5
Waxing Gibbous
Mar 8
Full
Mar 14
Last Quarter
Mar 22
New
Mar 30
First Quarter

Hourly Weather History & Observations

Time (CST) Temp. Dew Point Humidity Pressure Visibility Wind Dir Wind Speed Gust Speed Precip Events Conditions
12:53 AM 54.0 °F 44.1 °F 69% 30.24 in 10.0 mi WSW 6.9 mph - N/A   Clear
1:53 AM 55.0 °F 46.0 °F 72% 30.25 in 10.0 mi WSW 8.1 mph - N/A   Clear
2:53 AM 55.9 °F 46.9 °F 72% 30.25 in 10.0 mi West 10.4 mph - N/A   Clear
3:53 AM 55.0 °F 45.0 °F 69% 30.26 in 10.0 mi West 8.1 mph - N/A   Clear
4:53 AM 54.0 °F 43.0 °F 66% 30.28 in 10.0 mi West 9.2 mph - N/A   Clear
5:53 AM 54.0 °F 41.0 °F 62% 30.30 in 10.0 mi West 8.1 mph - N/A   Clear
6:53 AM 55.9 °F 41.0 °F 57% 30.31 in 10.0 mi West 12.7 mph - N/A   Clear
7:53 AM 59.0 °F 42.1 °F 53% 30.34 in 10.0 mi West 13.8 mph - N/A   Clear
8:53 AM 63.0 °F 42.1 °F 46% 30.35 in 10.0 mi WNW 11.5 mph - N/A   Clear
9:53 AM 66.9 °F 39.9 °F 37% 30.36 in 10.0 mi NW 11.5 mph - N/A   Clear
10:53 AM 70.0 °F 39.9 °F 33% 30.36 in 10.0 mi NW 10.4 mph - N/A   Clear
11:53 AM 72.0 °F 39.0 °F 30% 30.34 in 10.0 mi NNW 8.1 mph - N/A   Clear
12:53 PM 75.0 °F 39.0 °F 27% 30.32 in 10.0 mi North 10.4 mph - N/A   Clear
1:53 PM 75.9 °F 36.0 °F 23% 30.31 in 10.0 mi NW 15.0 mph - N/A   Clear
2:53 PM 75.9 °F 34.0 °F 22% 30.30 in 10.0 mi North 16.1 mph 21.9 mph N/A   Clear
3:53 PM 75.0 °F 34.0 °F 22% 30.30 in 10.0 mi NW 9.2 mph - N/A   Clear
4:53 PM 73.9 °F 35.1 °F 24% 30.32 in 10.0 mi North 6.9 mph - N/A   Clear
5:53 PM 69.1 °F 35.1 °F 29% 30.33 in 10.0 mi North 8.1 mph - N/A   Clear
6:53 PM 66.0 °F 28.9 °F 25% 30.35 in 10.0 mi North 6.9 mph - N/A   Clear
7:53 PM 63.0 °F 36.0 °F 37% 30.37 in 10.0 mi NNE 5.8 mph - N/A   Clear
8:53 PM 61.0 °F 34.0 °F 36% 30.39 in 10.0 mi NNE 6.9 mph - N/A   Clear
9:53 PM 60.1 °F 30.9 °F 33% 30.40 in 10.0 mi NNE 6.9 mph - N/A   Clear
10:53 PM 57.9 °F 30.9 °F 36% 30.40 in 10.0 mi NNE 6.9 mph - N/A   Clear
11:53 PM 57.0 °F 26.1 °F 30% 30.40 in 10.0 mi NE 8.1 mph - N/A   Clear